Accueil
METAR-TAF:

METAR-TAF

Aéroports :

Matam, Sénégal

latitude: 15-39N, longitude: 013-15W, altitude: 15 m

Observation

Le bulletin a été fait il y a 1 heure et 9 minutes, à 23:00 UTC
Vent 4 kt de nord-ouest
Température 36°C
Humidité 42%
Pression 1011 hPa
Visibilité 10 km ou plus
pas de nuages en-dessous de 1500 mètres et pas de cumulonimbus.

METAR: GOSM 162300Z 32004KT CAVOK 36/21 Q1011

Heure: 00:09 (00:09 UTC)


TAF: absent

Observations et prévisions météorologiques de plus de 4000 aéroports (messages METAR et TAF).

Les stations disponibles sont représentées par des disques jaunes et rouges sur la carte.

Passer la souris dessus pour voir le nom de la station.

Cliquer dessus pour voir les observations et prévisions météorologiques.

Pour changer de carte: cliquez sur les boutons verts avec une croix noire pour zoomer, sur le bouton vert avec un tiret pour effectuer un zoom arrière, ou sur les flèches vertes pour les cartes adjacentes.


METAR-TAF: